Time,TemperatureF,DewpointF,PressureIn,WindDirection,WindDirectionDegrees,WindSpeedMPH,WindSpeedGustMPH,Humidity,HourlyPrecipIn,Conditions,Clouds,dailyrainin,SoftwareType,DateUTC
2014-01-24 00:01:00,15.4,4.5,30.23,WNW,293,19.0,26.0,61,0.00,,,0.00,meteohub,2014-01-24 05:01:00,
2014-01-24 00:02:00,15.4,4.1,30.23,NNW,338,23.0,26.0,60,0.00,,,0.00,meteohub,2014-01-24 05:02:00,
2014-01-24 00:07:00,15.4,4.5,30.23,WNW,293,11.0,26.0,61,0.00,,,0.00,meteohub,2014-01-24 05:07:00,
2014-01-24 00:08:00,15.4,4.5,30.23,WNW,293,11.0,26.0,61,0.00,,,0.00,meteohub,2014-01-24 05:08:00,
2014-01-24 00:13:00,15.4,4.5,30.23,WNW,293,11.0,23.0,61,0.00,,,0.00,meteohub,2014-01-24 05:13:00,
2014-01-24 00:17:00,15.4,4.8,30.23,West,270,14.0,23.0,62,0.00,,,0.00,meteohub,2014-01-24 05:17:00,
2014-01-24 00:22:00,15.3,4.6,30.23,NW,315,18.0,18.0,62,0.00,,,0.00,meteohub,2014-01-24 05:22:00,
2014-01-24 00:28:00,15.3,5.0,30.23,NW,315,13.0,14.0,63,0.00,,,0.00,meteohub,2014-01-24 05:28:00,
2014-01-24 00:33:00,15.3,5.0,30.23,WNW,293,14.0,18.0,63,0.00,,,0.00,meteohub,2014-01-24 05:33:00,
2014-01-24 00:38:00,15.3,5.0,30.23,NW,315,14.0,18.0,63,0.00,,,0.00,meteohub,2014-01-24 05:38:00,
2014-01-24 00:43:00,15.3,4.6,30.23,WNW,293,17.0,18.0,62,0.00,,,0.00,meteohub,2014-01-24 05:43:00,
2014-01-24 00:48:00,15.3,4.6,30.23,West,270,19.0,20.0,62,0.00,,,0.00,meteohub,2014-01-24 05:48:00,
2014-01-24 00:53:00,15.3,4.3,30.23,WNW,293,15.0,20.0,61,0.00,,,0.00,meteohub,2014-01-24 05:53:00,
2014-01-24 00:58:00,15.3,4.3,30.23,WNW,293,21.0,21.0,61,0.00,,,0.00,meteohub,2014-01-24 05:58:00,
2014-01-24 01:03:00,15.3,4.3,30.23,WNW,293,20.0,21.0,61,0.00,,,0.00,meteohub,2014-01-24 06:03:00,
2014-01-24 01:08:00,15.3,3.9,30.23,NW,315,17.0,21.0,60,0.00,,,0.00,meteohub,2014-01-24 06:08:00,
2014-01-24 01:13:00,15.3,3.9,30.23,WNW,293,15.0,21.0,60,0.00,,,0.00,meteohub,2014-01-24 06:13:00,
2014-01-24 01:18:00,15.3,3.9,30.23,NW,315,20.0,20.0,60,0.00,,,0.00,meteohub,2014-01-24 06:18:00,
2014-01-24 01:23:00,14.9,3.6,30.23,NW,315,15.0,20.0,60,0.00,,,0.00,meteohub,2014-01-24 06:23:00,
2014-01-24 01:28:00,14.9,3.9,30.23,NW,315,26.0,26.0,61,0.00,,,0.00,meteohub,2014-01-24 06:28:00,
2014-01-24 01:34:00,14.9,3.9,30.23,WNW,293,19.0,26.0,61,0.00,,,0.00,meteohub,2014-01-24 06:34:00,
2014-01-24 01:39:00,14.7,3.7,30.23,NW,315,15.0,26.0,61,0.00,,,0.00,meteohub,2014-01-24 06:39:00,
2014-01-24 01:44:00,14.5,3.9,30.23,NW,315,12.0,26.0,62,0.00,,,0.00,meteohub,2014-01-24 06:44:00,
2014-01-24 01:49:00,14.5,3.9,30.24,NW,315,15.0,20.0,62,0.00,,,0.00,meteohub,2014-01-24 06:49:00,
2014-01-24 01:54:00,14.5,4.3,30.24,NW,315,19.0,20.0,63,0.00,,,0.00,meteohub,2014-01-24 06:54:00,
2014-01-24 01:59:00,14.5,4.3,30.24,NW,315,15.0,22.0,63,0.00,,,0.00,meteohub,2014-01-24 06:59:00,
2014-01-24 02:04:00,14.2,3.9,30.24,WNW,293,19.0,22.0,63,0.00,,,0.00,meteohub,2014-01-24 07:04:00,
2014-01-24 02:09:00,14.0,3.7,30.24,WNW,293,18.0,22.0,63,0.00,,,0.00,meteohub,2014-01-24 07:09:00,
2014-01-24 02:14:00,14.0,3.7,30.24,NW,315,22.0,22.0,63,0.00,,,0.00,meteohub,2014-01-24 07:14:00,
2014-01-24 02:19:00,14.2,3.9,30.24,NW,315,21.0,21.0,63,0.00,,,0.00,meteohub,2014-01-24 07:19:00,
2014-01-24 02:24:00,13.8,3.9,30.24,NW,315,16.0,22.0,64,0.00,,,0.00,meteohub,2014-01-24 07:24:00,
2014-01-24 02:29:00,13.8,3.9,30.24,NW,315,16.0,22.0,64,0.00,,,0.00,meteohub,2014-01-24 07:29:00,
2014-01-24 02:34:00,14.2,3.9,30.24,NW,315,21.0,21.0,63,0.00,,,0.00,meteohub,2014-01-24 07:34:00,
2014-01-24 02:39:00,13.8,3.9,30.24,NW,315,21.0,21.0,64,0.00,,,0.00,meteohub,2014-01-24 07:39:00,
2014-01-24 02:44:00,13.8,3.6,30.24,NW,315,16.0,21.0,63,0.00,,,0.00,meteohub,2014-01-24 07:44:00,
2014-01-24 02:50:00,13.8,3.9,30.25,NW,315,18.0,22.0,64,0.00,,,0.00,meteohub,2014-01-24 07:50:00,
2014-01-24 02:55:00,13.8,3.9,30.25,NW,315,21.0,26.0,64,0.00,,,0.00,meteohub,2014-01-24 07:55:00,
2014-01-24 03:00:00,13.8,3.9,30.25,NW,315,18.0,26.0,64,0.00,,,0.00,meteohub,2014-01-24 08:00:00,
2014-01-24 03:05:00,13.8,3.9,30.25,NW,315,23.0,26.0,64,0.00,,,0.00,meteohub,2014-01-24 08:05:00,
2014-01-24 03:10:00,13.8,3.9,30.25,NW,315,20.0,26.0,64,0.00,,,0.00,meteohub,2014-01-24 08:10:00,
2014-01-24 03:15:00,13.8,3.9,30.25,NW,315,20.0,23.0,64,0.00,,,0.00,meteohub,2014-01-24 08:15:00,
2014-01-24 03:20:00,13.3,3.4,30.25,NW,315,21.0,21.0,64,0.00,,,0.00,meteohub,2014-01-24 08:20:00,
2014-01-24 03:25:00,13.3,3.4,30.25,NW,315,17.0,21.0,64,0.00,,,0.00,meteohub,2014-01-24 08:25:00,
2014-01-24 03:30:00,13.5,3.6,30.24,NW,315,18.0,21.0,64,0.00,,,0.00,meteohub,2014-01-24 08:30:00,
2014-01-24 03:35:00,13.1,3.2,30.24,NW,315,16.0,22.0,64,0.00,,,0.00,meteohub,2014-01-24 08:35:00,
2014-01-24 03:40:00,13.5,3.9,30.24,NW,315,23.0,23.0,65,0.00,,,0.00,meteohub,2014-01-24 08:40:00,
2014-01-24 03:45:00,13.1,3.2,30.24,NW,315,17.0,23.0,64,0.00,,,0.00,meteohub,2014-01-24 08:45:00,
2014-01-24 03:50:00,13.1,3.6,30.25,NNW,338,26.0,26.0,65,0.00,,,0.00,meteohub,2014-01-24 08:50:00,
2014-01-24 03:55:00,13.1,3.6,30.25,West,270,15.0,26.0,65,0.00,,,0.00,meteohub,2014-01-24 08:55:00,
2014-01-24 04:00:00,13.1,3.6,30.25,NW,315,25.0,26.0,65,0.00,,,0.00,meteohub,2014-01-24 09:00:00,
2014-01-24 04:06:00,13.1,3.2,30.24,NNW,338,17.0,26.0,64,0.00,,,0.00,meteohub,2014-01-24 09:06:00,
2014-01-24 04:11:00,13.1,3.6,30.24,NW,315,24.0,26.0,65,0.00,,,0.00,meteohub,2014-01-24 09:11:00,
2014-01-24 04:16:00,13.1,3.6,30.24,WNW,293,16.0,26.0,65,0.00,,,0.00,meteohub,2014-01-24 09:16:00,
2014-01-24 04:21:00,13.1,3.6,30.24,NW,315,20.0,24.0,65,0.00,,,0.00,meteohub,2014-01-24 09:21:00,
2014-01-24 04:26:00,12.7,3.2,30.24,NW,315,16.0,24.0,65,0.00,,,0.00,meteohub,2014-01-24 09:26:00,
2014-01-24 04:31:00,12.7,2.8,30.25,NW,315,22.0,28.0,64,0.00,,,0.00,meteohub,2014-01-24 09:31:00,
2014-01-24 04:36:00,12.7,2.8,30.25,NW,315,23.0,28.0,64,0.00,,,0.00,meteohub,2014-01-24 09:36:00,
2014-01-24 04:41:00,12.7,2.8,30.25,West,270,23.0,28.0,64,0.00,,,0.00,meteohub,2014-01-24 09:41:00,
2014-01-24 04:46:00,12.7,3.2,30.25,WNW,293,21.0,25.0,65,0.00,,,0.00,meteohub,2014-01-24 09:46:00,
2014-01-24 04:51:00,12.6,3.0,30.25,NW,315,16.0,25.0,65,0.00,,,0.00,meteohub,2014-01-24 09:51:00,
2014-01-24 04:56:00,12.7,3.9,30.25,NW,315,21.0,25.0,67,0.00,,,0.00,meteohub,2014-01-24 09:56:00,
2014-01-24 05:01:00,12.7,3.6,30.25,NW,315,15.0,23.0,66,0.00,,,0.00,meteohub,2014-01-24 10:01:00,
2014-01-24 05:06:00,12.4,2.8,30.26,WNW,293,18.0,23.0,65,0.00,,,0.00,meteohub,2014-01-24 10:06:00,
2014-01-24 05:11:00,12.4,2.5,30.26,NW,315,24.0,30.0,64,0.00,,,0.00,meteohub,2014-01-24 10:11:00,
2014-01-24 05:16:00,12.4,2.5,30.26,WNW,293,22.0,30.0,64,0.00,,,0.00,meteohub,2014-01-24 10:16:00,
2014-01-24 05:22:00,12.2,2.3,30.26,NW,315,22.0,30.0,64,0.00,,,0.00,meteohub,2014-01-24 10:22:00,
2014-01-24 05:27:00,12.4,2.5,30.26,NW,315,22.0,30.0,64,0.00,,,0.00,meteohub,2014-01-24 10:27:00,
2014-01-24 05:32:00,12.0,2.1,30.26,NW,315,15.0,22.0,64,0.00,,,0.00,meteohub,2014-01-24 10:32:00,
2014-01-24 05:37:00,11.8,2.3,30.26,North,0,22.0,23.0,65,0.00,,,0.00,meteohub,2014-01-24 10:37:00,
2014-01-24 05:42:00,11.7,2.1,30.26,WNW,293,16.0,29.0,65,0.00,,,0.00,meteohub,2014-01-24 10:42:00,
2014-01-24 05:47:00,11.7,2.1,30.27,NW,315,10.0,29.0,65,0.00,,,0.00,meteohub,2014-01-24 10:47:00,
2014-01-24 05:52:00,11.3,2.5,30.27,WNW,293,16.0,29.0,67,0.00,,,0.00,meteohub,2014-01-24 10:52:00,
2014-01-24 05:57:00,11.1,2.3,30.27,NW,315,23.0,23.0,67,0.00,,,0.00,meteohub,2014-01-24 10:57:00,
2014-01-24 06:02:00,10.9,2.1,30.27,NW,315,21.0,23.0,67,0.00,,,0.00,meteohub,2014-01-24 11:02:00,
2014-01-24 06:07:00,10.9,2.1,30.28,WNW,293,20.0,23.0,67,0.00,,,0.00,meteohub,2014-01-24 11:07:00,
2014-01-24 06:12:00,10.9,2.1,30.28,WNW,293,20.0,23.0,67,0.00,,,0.00,meteohub,2014-01-24 11:12:00,
2014-01-24 06:17:00,10.8,2.3,30.28,NW,315,21.0,21.0,68,0.00,,,0.00,meteohub,2014-01-24 11:17:00,
2014-01-24 06:22:00,10.6,2.1,30.28,NW,315,18.0,21.0,68,0.00,,,0.00,meteohub,2014-01-24 11:22:00,
2014-01-24 06:27:00,10.6,2.1,30.30,NW,315,18.0,21.0,68,0.00,,,0.00,meteohub,2014-01-24 11:27:00,
2014-01-24 06:32:00,10.6,2.1,30.30,NW,315,15.0,22.0,68,0.00,,,0.00,meteohub,2014-01-24 11:32:00,
2014-01-24 06:37:00,10.6,2.1,30.30,NW,315,20.0,22.0,68,0.00,,,0.00,meteohub,2014-01-24 11:37:00,
2014-01-24 06:42:00,10.4,1.9,30.30,WNW,293,23.0,23.0,68,0.00,,,0.00,meteohub,2014-01-24 11:42:00,
2014-01-24 06:47:00,10.2,1.8,30.29,NW,315,15.0,23.0,68,0.00,,,0.00,meteohub,2014-01-24 11:47:00,
2014-01-24 06:52:00,10.2,1.8,30.29,North,0,22.0,23.0,68,0.00,,,0.00,meteohub,2014-01-24 11:52:00,
2014-01-24 06:57:00,10.2,2.1,30.29,NW,315,17.0,23.0,69,0.00,,,0.00,meteohub,2014-01-24 11:57:00,
2014-01-24 07:02:00,10.2,1.8,30.29,West,270,19.0,22.0,68,0.00,,,0.00,meteohub,2014-01-24 12:02:00,
2014-01-24 07:07:00,10.2,1.8,30.30,NW,315,18.0,26.0,68,0.00,,,0.00,meteohub,2014-01-24 12:07:00,
2014-01-24 07:12:00,10.2,1.8,30.30,NW,315,21.0,26.0,68,0.00,,,0.00,meteohub,2014-01-24 12:12:00,
2014-01-24 07:17:00,10.2,1.8,30.30,NW,315,29.0,29.0,68,0.00,,,0.00,meteohub,2014-01-24 12:17:00,
2014-01-24 07:22:00,10.2,1.8,30.30,NW,315,16.0,29.0,68,0.00,,,0.00,meteohub,2014-01-24 12:22:00,
2014-01-24 07:27:00,10.2,1.8,30.31,WNW,293,21.0,29.0,68,0.00,,,0.00,meteohub,2014-01-24 12:27:00,
2014-01-24 07:32:00,10.2,1.4,30.31,NW,315,18.0,29.0,67,0.00,,,0.00,meteohub,2014-01-24 12:32:00,
2014-01-24 07:37:00,10.2,1.8,30.31,WNW,293,17.0,21.0,68,0.00,,,0.00,meteohub,2014-01-24 12:37:00,
2014-01-24 07:42:00,10.2,1.8,30.31,NNW,338,21.0,23.0,68,0.00,,,0.00,meteohub,2014-01-24 12:42:00,
2014-01-24 07:47:00,10.2,1.4,30.31,NW,315,18.0,23.0,67,0.00,,,0.00,meteohub,2014-01-24 12:47:00,
2014-01-24 07:52:00,10.2,1.0,30.31,NW,315,29.0,29.0,66,0.00,,,0.00,meteohub,2014-01-24 12:52:00,
2014-01-24 07:57:00,10.2,1.0,30.31,WNW,293,24.0,29.0,66,0.00,,,0.00,meteohub,2014-01-24 12:57:00,
2014-01-24 08:02:00,10.2,1.0,30.31,NW,315,16.0,29.0,66,0.00,,,0.00,meteohub,2014-01-24 13:02:00,
2014-01-24 08:07:00,10.4,1.6,30.32,NW,315,27.0,29.0,67,0.00,,,0.00,meteohub,2014-01-24 13:07:00,
2014-01-24 08:12:00,10.4,1.6,30.32,WNW,293,21.0,27.0,67,0.00,,,0.00,meteohub,2014-01-24 13:12:00,
2014-01-24 08:17:00,10.4,1.2,30.32,NW,315,17.0,27.0,66,0.00,,,0.00,meteohub,2014-01-24 13:17:00,
2014-01-24 08:22:00,10.6,1.8,30.32,NW,315,21.0,27.0,67,0.00,,,0.00,meteohub,2014-01-24 13:22:00,
2014-01-24 08:27:00,10.6,1.4,30.32,WNW,293,15.0,23.0,66,0.00,,,0.00,meteohub,2014-01-24 13:27:00,
2014-01-24 08:32:00,10.4,1.2,30.32,NW,315,12.0,24.0,66,0.00,,,0.00,meteohub,2014-01-24 13:32:00,
2014-01-24 08:37:00,10.6,1.8,30.32,NW,315,13.0,24.0,67,0.00,,,0.00,meteohub,2014-01-24 13:37:00,
2014-01-24 08:42:00,10.6,1.4,30.32,NW,315,21.0,24.0,66,0.00,,,0.00,meteohub,2014-01-24 13:42:00,
2014-01-24 08:47:00,10.9,1.8,30.33,NW,315,17.0,21.0,66,0.00,,,0.00,meteohub,2014-01-24 13:47:00,
2014-01-24 08:52:00,10.9,1.4,30.33,West,270,21.0,21.0,65,0.00,,,0.00,meteohub,2014-01-24 13:52:00,
2014-01-24 08:57:00,10.9,1.4,30.33,NW,315,23.0,23.0,65,0.00,,,0.00,meteohub,2014-01-24 13:57:00,
2014-01-24 09:02:00,10.9,1.4,30.33,WNW,293,13.0,23.0,65,0.00,,,0.00,meteohub,2014-01-24 14:02:00,
2014-01-24 09:07:00,11.1,1.6,30.33,NW,315,15.0,24.0,65,0.00,,,0.00,meteohub,2014-01-24 14:07:00,
2014-01-24 09:12:00,11.7,2.5,30.33,NW,315,15.0,24.0,66,0.00,,,0.00,meteohub,2014-01-24 14:12:00,
2014-01-24 09:17:00,11.7,2.1,30.33,NW,315,18.0,24.0,65,0.00,,,0.00,meteohub,2014-01-24 14:17:00,
2014-01-24 09:22:00,11.7,1.8,30.33,WNW,293,13.0,22.0,64,0.00,,,0.00,meteohub,2014-01-24 14:22:00,
2014-01-24 09:27:00,11.7,1.6,30.34,NW,315,23.0,26.0,63,0.00,,,0.00,meteohub,2014-01-24 14:27:00,
2014-01-24 09:32:00,11.7,1.6,30.34,West,270,26.0,26.0,63,0.00,,,0.00,meteohub,2014-01-24 14:32:00,
2014-01-24 09:37:00,11.7,1.6,30.34,NW,315,24.0,26.0,63,0.00,,,0.00,meteohub,2014-01-24 14:37:00,
2014-01-24 09:42:00,11.8,1.8,30.34,NW,315,15.0,26.0,63,0.00,,,0.00,meteohub,2014-01-24 14:42:00,
2014-01-24 09:47:00,11.8,1.4,30.33,NW,315,28.0,28.0,62,0.00,,,0.00,meteohub,2014-01-24 14:47:00,
2014-01-24 09:52:00,12.0,1.6,30.33,WNW,293,19.0,28.0,62,0.00,,,0.00,meteohub,2014-01-24 14:52:00,
2014-01-24 09:57:00,12.4,1.8,30.33,NW,315,18.0,29.0,62,0.00,,,0.00,meteohub,2014-01-24 14:57:00,
2014-01-24 10:02:00,12.6,1.9,30.33,NW,315,20.0,29.0,62,0.00,,,0.00,meteohub,2014-01-24 15:02:00,
2014-01-24 10:07:00,13.1,2.1,30.32,WNW,293,18.0,29.0,61,0.00,,,0.00,meteohub,2014-01-24 15:07:00,
2014-01-24 10:12:00,13.1,2.1,30.32,WNW,293,17.0,21.0,61,0.00,,,0.00,meteohub,2014-01-24 15:12:00,
2014-01-24 10:17:00,13.1,1.8,30.32,NW,315,23.0,26.0,60,0.00,,,0.00,meteohub,2014-01-24 15:17:00,
2014-01-24 10:22:00,13.1,1.4,30.32,NW,315,13.0,26.0,59,0.00,,,0.00,meteohub,2014-01-24 15:22:00,
2014-01-24 10:27:00,13.1,1.4,30.32,NNW,338,15.0,26.0,59,0.00,,,0.00,meteohub,2014-01-24 15:27:00,
2014-01-24 10:32:00,13.3,1.6,30.32,NW,315,14.0,23.0,59,0.00,,,0.00,meteohub,2014-01-24 15:32:00,
2014-01-24 10:37:00,13.5,1.8,30.32,WNW,293,19.0,19.0,59,0.00,,,0.00,meteohub,2014-01-24 15:37:00,
2014-01-24 10:42:00,13.8,2.1,30.32,WNW,293,16.0,19.0,59,0.00,,,0.00,meteohub,2014-01-24 15:42:00,
2014-01-24 10:47:00,13.8,2.1,30.31,West,270,15.0,19.0,59,0.00,,,0.00,meteohub,2014-01-24 15:47:00,
2014-01-24 10:52:00,13.8,1.8,30.31,NW,315,13.0,19.0,58,0.00,,,0.00,meteohub,2014-01-24 15:52:00,
2014-01-24 10:57:00,14.0,1.9,30.31,NW,315,22.0,22.0,58,0.00,,,0.00,meteohub,2014-01-24 15:57:00,
2014-01-24 11:02:00,14.2,2.5,30.31,WNW,293,13.0,22.0,59,0.00,,,0.00,meteohub,2014-01-24 16:02:00,
2014-01-24 11:07:00,14.5,2.5,30.30,NW,315,12.0,22.0,58,0.00,,,0.00,meteohub,2014-01-24 16:07:00,
2014-01-24 11:12:00,14.5,2.5,30.30,NNW,338,17.0,22.0,58,0.00,,,0.00,meteohub,2014-01-24 16:12:00,
2014-01-24 11:17:00,14.7,2.7,30.30,NW,315,9.0,18.0,58,0.00,,,0.00,meteohub,2014-01-24 16:17:00,
2014-01-24 11:22:00,14.9,2.5,30.30,WNW,293,20.0,20.0,57,0.00,,,0.00,meteohub,2014-01-24 16:22:00,
2014-01-24 11:27:00,15.1,2.7,30.30,NW,315,18.0,20.0,57,0.00,,,0.00,meteohub,2014-01-24 16:27:00,
2014-01-24 11:32:00,15.3,2.3,30.30,NW,315,12.0,20.0,56,0.00,,,0.00,meteohub,2014-01-24 16:32:00,
2014-01-24 11:37:00,15.6,2.7,30.30,NNW,338,13.0,20.0,56,0.00,,,0.00,meteohub,2014-01-24 16:37:00,
2014-01-24 11:42:00,15.6,1.9,30.30,NW,315,20.0,22.0,54,0.00,,,0.00,meteohub,2014-01-24 16:42:00,
2014-01-24 11:47:00,15.8,2.1,30.29,NW,315,15.0,22.0,54,0.00,,,0.00,meteohub,2014-01-24 16:47:00,
2014-01-24 11:52:00,16.0,2.3,30.29,NW,315,18.0,20.0,54,0.00,,,0.00,meteohub,2014-01-24 16:52:00,
2014-01-24 11:57:00,16.3,2.7,30.29,NW,315,16.0,20.0,54,0.00,,,0.00,meteohub,2014-01-24 16:57:00,
2014-01-24 12:02:00,16.3,2.7,30.29,NW,315,12.0,19.0,54,0.00,,,0.00,meteohub,2014-01-24 17:02:00,
2014-01-24 12:07:00,16.3,2.7,30.28,NW,315,11.0,19.0,54,0.00,,,0.00,meteohub,2014-01-24 17:07:00,
2014-01-24 12:12:00,16.3,2.7,30.28,NW,315,11.0,17.0,54,0.00,,,0.00,meteohub,2014-01-24 17:12:00,
2014-01-24 12:17:00,17.1,3.2,30.28,NW,315,17.0,17.0,54,0.00,,,0.00,meteohub,2014-01-24 17:17:00,
2014-01-24 12:22:00,16.9,2.3,30.28,NW,315,19.0,19.0,52,0.00,,,0.00,meteohub,2014-01-24 17:22:00,
2014-01-24 12:27:00,17.1,2.5,30.27,West,270,14.0,19.0,52,0.00,,,0.00,meteohub,2014-01-24 17:27:00,
2014-01-24 12:32:00,17.4,2.3,30.27,West,270,13.0,19.0,51,0.00,,,0.00,meteohub,2014-01-24 17:32:00,
2014-01-24 12:37:00,17.4,2.3,30.27,NW,315,9.0,21.0,51,0.00,,,0.00,meteohub,2014-01-24 17:37:00,
2014-01-24 12:42:00,17.8,3.2,30.27,West,270,15.0,21.0,52,0.00,,,0.00,meteohub,2014-01-24 17:42:00,
2014-01-24 12:47:00,18.1,3.6,30.27,NW,315,21.0,21.0,52,0.00,,,0.00,meteohub,2014-01-24 17:47:00,
2014-01-24 12:52:00,18.1,3.0,30.27,WNW,293,16.0,21.0,51,0.00,,,0.00,meteohub,2014-01-24 17:52:00,
2014-01-24 12:57:00,18.3,3.2,30.27,WNW,293,16.0,21.0,51,0.00,,,0.00,meteohub,2014-01-24 17:57:00,
2014-01-24 13:02:00,18.3,2.3,30.27,NW,315,13.0,21.0,49,0.00,,,0.00,meteohub,2014-01-24 18:02:00,
2014-01-24 13:07:00,18.5,3.0,30.26,NW,315,14.0,19.0,50,0.00,,,0.00,meteohub,2014-01-24 18:07:00,
2014-01-24 13:12:00,18.9,3.7,30.26,NW,315,19.0,19.0,51,0.00,,,0.00,meteohub,2014-01-24 18:12:00,
2014-01-24 13:17:00,19.0,3.9,30.26,West,270,11.0,19.0,51,0.00,,,0.00,meteohub,2014-01-24 18:17:00,
2014-01-24 13:22:00,19.2,3.2,30.26,NW,315,13.0,19.0,49,0.00,,,0.00,meteohub,2014-01-24 18:22:00,
2014-01-24 13:27:00,19.6,3.0,30.25,WNW,293,16.0,19.0,48,0.00,,,0.00,meteohub,2014-01-24 18:27:00,
2014-01-24 13:32:00,19.9,3.9,30.25,NW,315,6.0,17.0,49,0.00,,,0.00,meteohub,2014-01-24 18:32:00,
2014-01-24 13:37:00,20.1,4.5,30.25,WNW,293,17.0,17.0,50,0.00,,,0.00,meteohub,2014-01-24 18:37:00,
2014-01-24 13:42:00,20.3,4.6,30.25,NW,315,13.0,17.0,50,0.00,,,0.00,meteohub,2014-01-24 18:42:00,
2014-01-24 13:47:00,20.5,4.8,30.25,NW,315,16.0,17.0,50,0.00,,,0.00,meteohub,2014-01-24 18:47:00,
2014-01-24 13:52:00,20.7,4.5,30.25,West,270,12.0,17.0,49,0.00,,,0.00,meteohub,2014-01-24 18:52:00,
2014-01-24 13:57:00,20.5,3.9,30.25,NW,315,15.0,16.0,48,0.00,,,0.00,meteohub,2014-01-24 18:57:00,
2014-01-24 14:02:00,20.5,3.9,30.25,West,270,8.0,16.0,48,0.00,,,0.00,meteohub,2014-01-24 19:02:00,
2014-01-24 14:07:00,20.7,4.1,30.25,WNW,293,18.0,19.0,48,0.00,,,0.00,meteohub,2014-01-24 19:07:00,
2014-01-24 14:12:00,20.7,3.6,30.25,NNW,338,17.0,19.0,47,0.00,,,0.00,meteohub,2014-01-24 19:12:00,
2014-01-24 14:17:00,20.7,3.6,30.25,NW,315,13.0,18.0,47,0.00,,,0.00,meteohub,2014-01-24 19:17:00,
2014-01-24 14:22:00,21.0,3.6,30.25,WNW,293,9.0,18.0,46,0.00,,,0.00,meteohub,2014-01-24 19:22:00,
2014-01-24 14:27:00,21.0,3.9,30.25,WNW,293,13.0,18.0,47,0.00,,,0.00,meteohub,2014-01-24 19:27:00,
2014-01-24 14:32:00,21.0,3.6,30.25,NW,315,13.0,19.0,46,0.00,,,0.00,meteohub,2014-01-24 19:32:00,
2014-01-24 14:37:00,21.0,3.9,30.25,NW,315,18.0,19.0,47,0.00,,,0.00,meteohub,2014-01-24 19:37:00,
2014-01-24 14:42:00,21.4,4.3,30.25,WSW,248,9.0,19.0,47,0.00,,,0.00,meteohub,2014-01-24 19:42:00,
2014-01-24 14:47:00,21.4,4.3,30.23,WNW,293,13.0,18.0,47,0.00,,,0.00,meteohub,2014-01-24 19:47:00,
2014-01-24 14:52:00,21.4,3.7,30.23,WNW,293,12.0,18.0,46,0.00,,,0.00,meteohub,2014-01-24 19:52:00,
2014-01-24 14:57:00,21.4,3.7,30.23,WNW,293,9.0,13.0,46,0.00,,,0.00,meteohub,2014-01-24 19:57:00,
2014-01-24 15:02:00,21.4,3.4,30.23,NW,315,11.0,13.0,45,0.00,,,0.00,meteohub,2014-01-24 20:02:00,
2014-01-24 15:07:00,21.4,3.4,30.23,NW,315,13.0,13.0,45,0.00,,,0.00,meteohub,2014-01-24 20:07:00,
2014-01-24 15:13:00,21.0,3.0,30.23,West,270,11.0,13.0,45,0.00,,,0.00,meteohub,2014-01-24 20:13:00,
2014-01-24 15:18:00,21.4,4.3,30.23,West,270,10.0,14.0,47,0.00,,,0.00,meteohub,2014-01-24 20:18:00,
2014-01-24 15:23:00,21.4,4.3,30.23,NW,315,11.0,15.0,47,0.00,,,0.00,meteohub,2014-01-24 20:23:00,
2014-01-24 15:28:00,21.7,4.1,30.24,NW,315,15.0,15.0,46,0.00,,,0.00,meteohub,2014-01-24 20:28:00,
2014-01-24 15:33:00,21.4,3.7,30.24,West,270,11.0,15.0,46,0.00,,,0.00,meteohub,2014-01-24 20:33:00,
2014-01-24 15:38:00,21.4,3.7,30.24,West,270,9.0,15.0,46,0.00,,,0.00,meteohub,2014-01-24 20:38:00,
2014-01-24 15:43:00,21.6,4.5,30.24,WSW,248,9.0,15.0,47,0.00,,,0.00,meteohub,2014-01-24 20:43:00,
2014-01-24 15:48:00,21.7,4.6,30.23,West,270,11.0,11.0,47,0.00,,,0.00,meteohub,2014-01-24 20:48:00,
2014-01-24 15:53:00,21.4,4.3,30.23,West,270,17.0,17.0,47,0.00,,,0.00,meteohub,2014-01-24 20:53:00,
2014-01-24 15:58:00,21.2,4.1,30.23,WNW,293,13.0,13.0,47,0.00,,,0.00,meteohub,2014-01-24 20:58:00,
2014-01-24 16:03:00,20.3,3.2,30.23,WSW,248,12.0,17.0,47,0.00,,,0.00,meteohub,2014-01-24 21:03:00,
2014-01-24 16:08:00,20.3,3.2,30.22,NW,315,17.0,17.0,47,0.00,,,0.00,meteohub,2014-01-24 21:08:00,
2014-01-24 16:13:00,20.3,3.2,30.22,WNW,293,8.0,17.0,47,0.00,,,0.00,meteohub,2014-01-24 21:13:00,
2014-01-24 16:18:00,20.3,3.2,30.22,NW,315,13.0,17.0,47,0.00,,,0.00,meteohub,2014-01-24 21:18:00,
2014-01-24 16:23:00,19.9,3.4,30.22,NW,315,9.0,17.0,48,0.00,,,0.00,meteohub,2014-01-24 21:23:00,
2014-01-24 16:29:00,19.6,3.6,30.21,WNW,293,15.0,15.0,49,0.00,,,0.00,meteohub,2014-01-24 21:29:00,
2014-01-24 16:34:00,19.6,3.6,30.21,West,270,13.0,15.0,49,0.00,,,0.00,meteohub,2014-01-24 21:34:00,
2014-01-24 16:39:00,19.0,3.0,30.21,West,270,9.0,15.0,49,0.00,,,0.00,meteohub,2014-01-24 21:39:00,
2014-01-24 16:44:00,18.9,3.4,30.21,WNW,293,4.0,15.0,50,0.00,,,0.00,meteohub,2014-01-24 21:44:00,
2014-01-24 16:49:00,18.5,3.4,30.22,WSW,248,12.0,15.0,51,0.00,,,0.00,meteohub,2014-01-24 21:49:00,
2014-01-24 16:54:00,18.1,3.6,30.22,WNW,293,11.0,15.0,52,0.00,,,0.00,meteohub,2014-01-24 21:54:00,
2014-01-24 16:59:00,18.1,3.9,30.22,WNW,293,8.0,15.0,53,0.00,,,0.00,meteohub,2014-01-24 21:59:00,
2014-01-24 17:04:00,18.0,4.5,30.22,West,270,13.0,15.0,55,0.00,,,0.00,meteohub,2014-01-24 22:04:00,
2014-01-24 17:09:00,18.1,5.0,30.22,WNW,293,16.0,16.0,56,0.00,,,0.00,meteohub,2014-01-24 22:09:00,
2014-01-24 17:14:00,18.1,5.0,30.22,West,270,15.0,16.0,56,0.00,,,0.00,meteohub,2014-01-24 22:14:00,
2014-01-24 17:19:00,18.1,5.5,30.22,West,270,17.0,17.0,57,0.00,,,0.00,meteohub,2014-01-24 22:19:00,
2014-01-24 17:24:00,17.8,5.2,30.22,West,270,20.0,20.0,57,0.00,,,0.00,meteohub,2014-01-24 22:24:00,
2014-01-24 17:29:00,17.8,5.2,30.21,West,270,15.0,18.0,57,0.00,,,0.00,meteohub,2014-01-24 22:29:00,
2014-01-24 17:34:00,17.8,5.5,30.21,West,270,13.0,20.0,58,0.00,,,0.00,meteohub,2014-01-24 22:34:00,
2014-01-24 17:40:00,17.8,5.2,30.21,West,270,8.0,20.0,57,0.00,,,0.00,meteohub,2014-01-24 22:40:00,
2014-01-24 17:45:00,17.8,5.5,30.21,WNW,293,13.0,20.0,58,0.00,,,0.00,meteohub,2014-01-24 22:45:00,
2014-01-24 17:50:00,17.8,5.5,30.22,WSW,248,21.0,21.0,58,0.00,,,0.00,meteohub,2014-01-24 22:50:00,
2014-01-24 17:55:00,17.8,5.5,30.22,West,270,17.0,21.0,58,0.00,,,0.00,meteohub,2014-01-24 22:55:00,
2014-01-24 18:00:00,17.8,5.2,30.22,West,270,14.0,21.0,57,0.00,,,0.00,meteohub,2014-01-24 23:00:00,
2014-01-24 18:05:00,17.8,5.5,30.22,West,270,15.0,21.0,58,0.00,,,0.00,meteohub,2014-01-24 23:05:00,
2014-01-24 18:10:00,18.1,5.9,30.20,West,270,13.0,16.0,58,0.00,,,0.00,meteohub,2014-01-24 23:10:00,
2014-01-24 18:15:00,18.0,6.1,30.20,West,270,11.0,21.0,59,0.00,,,0.00,meteohub,2014-01-24 23:15:00,
2014-01-24 18:20:00,18.1,6.6,30.20,WSW,248,18.0,21.0,60,0.00,,,0.00,meteohub,2014-01-24 23:20:00,
2014-01-24 18:25:00,18.1,6.3,30.20,West,270,17.0,21.0,59,0.00,,,0.00,meteohub,2014-01-24 23:25:00,
2014-01-24 18:30:00,18.5,7.0,30.21,West,270,15.0,18.0,60,0.00,,,0.00,meteohub,2014-01-24 23:30:00,
2014-01-24 18:35:00,18.3,6.8,30.21,WNW,293,17.0,18.0,60,0.00,,,0.00,meteohub,2014-01-24 23:35:00,
2014-01-24 18:40:00,18.3,6.4,30.21,West,270,16.0,17.0,59,0.00,,,0.00,meteohub,2014-01-24 23:40:00,
2014-01-24 18:45:00,18.5,6.6,30.21,SSW,203,21.0,21.0,59,0.00,,,0.00,meteohub,2014-01-24 23:45:00,
2014-01-24 18:50:00,18.5,7.0,30.21,SW,225,20.0,21.0,60,0.00,,,0.00,meteohub,2014-01-24 23:50:00,
2014-01-24 18:56:00,18.5,7.0,30.21,SW,225,12.0,21.0,60,0.00,,,0.00,meteohub,2014-01-24 23:56:00,
2014-01-24 19:01:00,18.5,7.0,30.21,West,270,10.0,21.0,60,0.00,,,0.00,meteohub,2014-01-25 00:01:00,
2014-01-24 19:06:00,18.9,7.7,30.21,West,270,17.0,20.0,61,0.00,,,0.00,meteohub,2014-01-25 00:06:00,
2014-01-24 19:11:00,18.9,7.7,30.21,WSW,248,13.0,17.0,61,0.00,,,0.00,meteohub,2014-01-25 00:11:00,
2014-01-24 19:16:00,18.9,7.7,30.21,SW,225,19.0,19.0,61,0.00,,,0.00,meteohub,2014-01-25 00:16:00,
2014-01-24 19:21:00,18.7,7.2,30.21,NNE,23,13.0,21.0,60,0.00,,,0.00,meteohub,2014-01-25 00:21:00,
2014-01-24 19:26:00,18.7,7.2,30.21,SW,225,15.0,23.0,60,0.00,,,0.00,meteohub,2014-01-25 00:26:00,
2014-01-24 19:31:00,18.9,7.3,30.21,West,270,16.0,23.0,60,0.00,,,0.00,meteohub,2014-01-25 00:31:00,
2014-01-24 19:36:00,18.9,7.0,30.21,WSW,248,13.0,23.0,59,0.00,,,0.00,meteohub,2014-01-25 00:36:00,
2014-01-24 19:41:00,18.7,6.8,30.21,WSW,248,15.0,24.0,59,0.00,,,0.00,meteohub,2014-01-25 00:41:00,
2014-01-24 19:46:00,18.9,7.0,30.21,West,270,18.0,24.0,59,0.00,,,0.00,meteohub,2014-01-25 00:46:00,
2014-01-24 19:51:00,18.9,7.0,30.21,WSW,248,21.0,21.0,59,0.00,,,0.00,meteohub,2014-01-25 00:51:00,
2014-01-24 19:56:00,18.9,6.1,30.21,WSW,248,19.0,21.0,57,0.00,,,0.00,meteohub,2014-01-25 00:56:00,
2014-01-24 20:01:00,18.9,6.4,30.21,SW,225,23.0,23.0,58,0.00,,,0.00,meteohub,2014-01-25 01:01:00,
2014-01-24 20:07:00,18.9,6.1,30.20,SW,225,27.0,27.0,57,0.00,,,0.00,meteohub,2014-01-25 01:07:00,
2014-01-24 20:12:00,18.9,6.1,30.20,West,270,19.0,27.0,57,0.00,,,0.00,meteohub,2014-01-25 01:12:00,
2014-01-24 20:17:00,18.9,6.1,30.20,SW,225,15.0,27.0,57,0.00,,,0.00,meteohub,2014-01-25 01:17:00,
2014-01-24 20:22:00,18.9,6.1,30.20,WSW,248,19.0,27.0,57,0.00,,,0.00,meteohub,2014-01-25 01:22:00,
2014-01-24 20:27:00,18.9,6.1,30.19,WSW,248,13.0,19.0,57,0.00,,,0.00,meteohub,2014-01-25 01:27:00,
2014-01-24 20:32:00,18.9,6.1,30.19,WNW,293,19.0,21.0,57,0.00,,,0.00,meteohub,2014-01-25 01:32:00,
2014-01-24 20:37:00,19.0,5.9,30.19,WSW,248,20.0,21.0,56,0.00,,,0.00,meteohub,2014-01-25 01:37:00,
2014-01-24 20:42:00,19.0,5.9,30.19,WSW,248,24.0,24.0,56,0.00,,,0.00,meteohub,2014-01-25 01:42:00,
2014-01-24 20:47:00,19.0,5.9,30.18,SW,225,17.0,24.0,56,0.00,,,0.00,meteohub,2014-01-25 01:47:00,
2014-01-24 20:52:00,19.2,6.1,30.18,WSW,248,19.0,24.0,56,0.00,,,0.00,meteohub,2014-01-25 01:52:00,
2014-01-24 20:57:00,19.2,5.7,30.18,WSW,248,17.0,24.0,55,0.00,,,0.00,meteohub,2014-01-25 01:57:00,
2014-01-24 21:02:00,19.6,5.7,30.18,WSW,248,19.0,19.0,54,0.00,,,0.00,meteohub,2014-01-25 02:02:00,
2014-01-24 21:07:00,19.6,5.2,30.17,WSW,248,17.0,21.0,53,0.00,,,0.00,meteohub,2014-01-25 02:07:00,
2014-01-24 21:12:00,19.0,4.3,30.17,SW,225,20.0,26.0,52,0.00,,,0.00,meteohub,2014-01-25 02:12:00,
2014-01-24 21:17:00,19.2,4.8,30.17,WSW,248,17.0,26.0,53,0.00,,,0.00,meteohub,2014-01-25 02:17:00,
2014-01-24 21:22:00,19.2,5.4,30.17,WSW,248,18.0,22.0,54,0.00,,,0.00,meteohub,2014-01-25 02:22:00,
2014-01-24 21:27:00,19.2,5.4,30.17,West,270,9.0,22.0,54,0.00,,,0.00,meteohub,2014-01-25 02:27:00,
2014-01-24 21:32:00,19.2,5.4,30.17,WSW,248,21.0,21.0,54,0.00,,,0.00,meteohub,2014-01-25 02:32:00,
2014-01-24 21:37:00,19.6,6.4,30.17,WSW,248,19.0,21.0,56,0.00,,,0.00,meteohub,2014-01-25 02:37:00,
2014-01-24 21:42:00,19.6,6.4,30.17,SW,225,23.0,23.0,56,0.00,,,0.00,meteohub,2014-01-25 02:42:00,
2014-01-24 21:47:00,19.8,7.0,30.16,WSW,248,22.0,23.0,57,0.00,,,0.00,meteohub,2014-01-25 02:47:00,
2014-01-24 21:52:00,19.9,7.5,30.16,West,270,9.0,23.0,58,0.00,,,0.00,meteohub,2014-01-25 02:52:00,
2014-01-24 21:57:00,19.9,7.2,30.16,WSW,248,22.0,23.0,57,0.00,,,0.00,meteohub,2014-01-25 02:57:00,
2014-01-24 22:02:00,19.9,5.9,30.16,WSW,248,19.0,22.0,54,0.00,,,0.00,meteohub,2014-01-25 03:02:00,
2014-01-24 22:07:00,19.9,6.4,30.15,West,270,22.0,30.0,55,0.00,,,0.00,meteohub,2014-01-25 03:07:00,
2014-01-24 22:12:00,19.8,6.6,30.15,WSW,248,36.0,36.0,56,0.00,,,0.00,meteohub,2014-01-25 03:12:00,
2014-01-24 22:17:00,19.9,6.8,30.15,West,270,25.0,36.0,56,0.00,,,0.00,meteohub,2014-01-25 03:17:00,
2014-01-24 22:22:00,19.6,7.2,30.15,West,270,19.0,36.0,58,0.00,,,0.00,meteohub,2014-01-25 03:22:00,
2014-01-24 22:27:00,19.6,7.2,30.15,WSW,248,26.0,36.0,58,0.00,,,0.00,meteohub,2014-01-25 03:27:00,
2014-01-24 22:32:00,19.6,7.5,30.15,WSW,248,28.0,28.0,59,0.00,,,0.00,meteohub,2014-01-25 03:32:00,
2014-01-24 22:37:00,19.8,7.7,30.15,SW,225,24.0,28.0,59,0.00,,,0.00,meteohub,2014-01-25 03:37:00,
2014-01-24 22:42:00,19.8,8.1,30.15,West,270,22.0,28.0,60,0.00,,,0.00,meteohub,2014-01-25 03:42:00,
2014-01-24 22:47:00,19.8,8.4,30.14,WSW,248,30.0,30.0,61,0.00,,,0.00,meteohub,2014-01-25 03:47:00,
2014-01-24 22:52:00,20.1,9.9,30.14,WSW,248,28.0,30.0,64,0.00,,,0.00,meteohub,2014-01-25 03:52:00,
2014-01-24 22:57:00,20.3,10.0,30.14,West,270,26.0,30.0,64,0.00,,,0.00,meteohub,2014-01-25 03:57:00,
2014-01-24 23:02:00,20.3,10.4,30.14,West,270,18.0,30.0,65,0.00,,,0.00,meteohub,2014-01-25 04:02:00,
2014-01-24 23:07:00,20.3,11.5,30.12,WSW,248,26.0,30.0,68,0.00,,,0.00,meteohub,2014-01-25 04:07:00,
2014-01-24 23:12:00,20.3,10.8,30.12,SW,225,18.0,30.0,66,0.00,,,0.00,meteohub,2014-01-25 04:12:00,
2014-01-24 23:17:00,20.3,10.4,30.12,West,270,26.0,30.0,65,0.00,,,0.00,meteohub,2014-01-25 04:17:00,
2014-01-24 23:22:00,20.3,10.4,30.12,WSW,248,27.0,30.0,65,0.00,,,0.00,meteohub,2014-01-25 04:22:00,
2014-01-24 23:27:00,20.3,10.0,30.12,WNW,293,14.0,30.0,64,0.00,,,0.00,meteohub,2014-01-25 04:27:00,
2014-01-24 23:32:00,20.3,10.4,30.12,West,270,24.0,27.0,65,0.00,,,0.00,meteohub,2014-01-25 04:32:00,
2014-01-24 23:37:00,20.3,10.4,30.12,West,270,23.0,27.0,65,0.00,,,0.00,meteohub,2014-01-25 04:37:00,
2014-01-24 23:42:00,20.3,10.8,30.12,WSW,248,28.0,28.0,66,0.00,,,0.00,meteohub,2014-01-25 04:42:00,
2014-01-24 23:47:00,20.3,10.8,30.12,SSW,203,29.0,29.0,66,0.00,,,0.00,meteohub,2014-01-25 04:47:00,
2014-01-24 23:52:00,20.3,10.8,30.12,WSW,248,30.0,30.0,66,0.00,,,0.00,meteohub,2014-01-25 04:52:00,
2014-01-24 23:57:00,20.3,10.8,30.12,SW,225,29.0,30.0,66,0.00,,,0.00,meteohub,2014-01-25 04:57:00,